Time,TemperatureF,DewpointF,PressureIn,WindDirection,WindDirectionDegrees,WindSpeedMPH,WindSpeedGustMPH,Humidity,HourlyPrecipIn,Conditions,Clouds,dailyrainin,SoftwareType,DateUTC
2017-03-27 00:09:00,69.7,66.0,30.06,SE,134,0.0,5.0,89,0.00,,,0.00,weatherlink.com 1.10,2017-03-27 05:09:00,
2017-03-27 00:24:00,69.5,66.0,30.06,SE,131,0.0,0.0,89,0.00,,,0.00,weatherlink.com 1.10,2017-03-27 05:24:00,
2017-03-27 00:39:00,69.4,66.0,30.05,SE,137,0.0,0.0,89,0.00,,,0.00,weatherlink.com 1.10,2017-03-27 05:39:00,
2017-03-27 00:54:00,69.0,66.0,30.05,SE,127,0.0,0.0,89,0.00,,,0.00,weatherlink.com 1.10,2017-03-27 05:54:00,
2017-03-27 01:09:00,68.6,65.0,30.05,SE,139,0.0,0.0,89,0.00,,,0.00,weatherlink.com 1.10,2017-03-27 06:09:00,
2017-03-27 01:24:00,68.7,65.0,30.05,SE,138,0.0,0.0,89,0.00,,,0.00,weatherlink.com 1.10,2017-03-27 06:24:00,
2017-03-27 01:39:00,68.9,66.0,30.04,SE,136,0.0,0.0,89,0.00,,,0.00,weatherlink.com 1.10,2017-03-27 06:39:00,
2017-03-27 01:54:00,68.8,66.0,30.04,SE,138,0.0,0.0,89,0.00,,,0.00,weatherlink.com 1.10,2017-03-27 06:54:00,
2017-03-27 02:10:00,68.7,66.0,30.03,SE,137,0.0,0.0,90,0.00,,,0.00,weatherlink.com 1.10,2017-03-27 07:10:00,
2017-03-27 02:25:00,68.8,66.0,30.04,SE,144,0.0,0.0,89,0.00,,,0.00,weatherlink.com 1.10,2017-03-27 07:25:00,
2017-03-27 02:40:00,68.7,65.0,30.03,SE,137,0.0,0.0,89,0.00,,,0.00,weatherlink.com 1.10,2017-03-27 07:40:00,
2017-03-27 02:55:00,68.8,66.0,30.03,SE,133,0.0,0.0,89,0.00,,,0.00,weatherlink.com 1.10,2017-03-27 07:55:00,
2017-03-27 03:10:00,68.5,65.0,30.03,ESE,109,0.0,0.0,89,0.00,,,0.00,weatherlink.com 1.10,2017-03-27 08:10:00,
2017-03-27 03:25:00,68.5,65.0,30.02,ESE,109,0.0,0.0,89,0.00,,,0.00,weatherlink.com 1.10,2017-03-27 08:25:00,
2017-03-27 03:40:00,68.4,65.0,30.02,ESE,106,0.0,0.0,90,0.00,,,0.00,weatherlink.com 1.10,2017-03-27 08:40:00,
2017-03-27 03:55:00,68.4,65.0,30.02,ESE,112,0.0,0.0,90,0.00,,,0.00,weatherlink.com 1.10,2017-03-27 08:55:00,
2017-03-27 04:10:00,68.4,65.0,30.02,ESE,121,0.0,0.0,90,0.00,,,0.00,weatherlink.com 1.10,2017-03-27 09:10:00,
2017-03-27 04:25:00,68.3,65.0,30.02,ESE,111,0.0,0.0,90,0.00,,,0.00,weatherlink.com 1.10,2017-03-27 09:25:00,
2017-03-27 04:40:00,68.3,65.0,30.03,East,101,0.0,0.0,90,0.00,,,0.00,weatherlink.com 1.10,2017-03-27 09:40:00,
2017-03-27 04:55:00,68.1,65.0,30.04,ESE,121,0.0,0.0,89,0.00,,,0.00,weatherlink.com 1.10,2017-03-27 09:55:00,
2017-03-27 05:10:00,68.1,65.0,30.04,SE,130,0.0,0.0,90,0.00,,,0.00,weatherlink.com 1.10,2017-03-27 10:10:00,
2017-03-27 05:25:00,68.0,65.0,30.05,ESE,117,0.0,0.0,90,0.00,,,0.00,weatherlink.com 1.10,2017-03-27 10:25:00,
2017-03-27 05:40:00,67.9,65.0,30.05,SE,124,0.0,0.0,90,0.00,,,0.00,weatherlink.com 1.10,2017-03-27 10:40:00,
2017-03-27 05:55:00,67.9,65.0,30.05,SE,132,0.0,0.0,90,0.00,,,0.00,weatherlink.com 1.10,2017-03-27 10:55:00,
2017-03-27 06:10:00,67.5,65.0,30.06,ESE,122,0.0,0.0,90,0.00,,,0.00,weatherlink.com 1.10,2017-03-27 11:10:00,
2017-03-27 06:25:00,67.4,65.0,30.06,SE,132,0.0,0.0,90,0.00,,,0.00,weatherlink.com 1.10,2017-03-27 11:25:00,
2017-03-27 06:40:00,67.3,64.0,30.07,SE,127,0.0,0.0,90,0.00,,,0.00,weatherlink.com 1.10,2017-03-27 11:40:00,
2017-03-27 06:55:00,67.5,65.0,30.08,East,86,0.0,0.0,90,0.00,,,0.00,weatherlink.com 1.10,2017-03-27 11:55:00,
2017-03-27 07:10:00,67.3,64.0,30.08,ESE,110,0.0,0.0,90,0.00,,,0.00,weatherlink.com 1.10,2017-03-27 12:10:00,
2017-03-27 07:25:00,67.3,64.0,30.09,East,99,0.0,0.0,90,0.00,,,0.00,weatherlink.com 1.10,2017-03-27 12:25:00,
2017-03-27 07:40:00,67.4,65.0,30.10,ESE,107,0.0,0.0,90,0.00,,,0.00,weatherlink.com 1.10,2017-03-27 12:40:00,
2017-03-27 07:55:00,67.5,65.0,30.11,ESE,111,0.0,0.0,90,0.00,,,0.00,weatherlink.com 1.10,2017-03-27 12:55:00,
2017-03-27 08:10:00,67.5,65.0,30.11,SE,127,0.0,0.0,90,0.00,,,0.00,weatherlink.com 1.10,2017-03-27 13:10:00,
2017-03-27 08:26:00,67.2,64.0,30.12,ESE,107,0.0,0.0,90,0.00,,,0.00,weatherlink.com 1.10,2017-03-27 13:26:00,
2017-03-27 08:40:00,67.1,64.0,30.12,ESE,103,0.0,0.0,90,0.00,,,0.00,weatherlink.com 1.10,2017-03-27 13:40:00,
2017-03-27 08:55:00,67.3,64.0,30.13,ESE,112,0.0,0.0,89,0.00,,,0.00,weatherlink.com 1.10,2017-03-27 13:55:00,
2017-03-27 09:10:00,67.6,64.0,30.13,ESE,120,0.0,0.0,88,0.00,,,0.00,weatherlink.com 1.10,2017-03-27 14:10:00,
2017-03-27 09:25:00,67.6,64.0,30.13,SSE,151,0.0,0.0,88,0.00,,,0.00,weatherlink.com 1.10,2017-03-27 14:25:00,
2017-03-27 09:40:00,67.7,64.0,30.13,SE,127,0.0,0.0,87,0.00,,,0.00,weatherlink.com 1.10,2017-03-27 14:40:00,
2017-03-27 09:55:00,67.9,64.0,30.13,SE,129,0.0,0.0,87,0.00,,,0.00,weatherlink.com 1.10,2017-03-27 14:55:00,
2017-03-27 10:10:00,68.3,64.0,30.12,ESE,121,0.0,0.0,86,0.00,,,0.00,weatherlink.com 1.10,2017-03-27 15:10:00,
2017-03-27 10:25:00,68.6,64.0,30.12,SE,130,0.0,0.0,86,0.00,,,0.00,weatherlink.com 1.10,2017-03-27 15:25:00,
2017-03-27 10:40:00,68.6,64.0,30.11,SE,124,0.0,13.0,86,0.00,,,0.00,weatherlink.com 1.10,2017-03-27 15:40:00,
2017-03-27 10:55:00,68.9,64.0,30.11,SE,140,14.0,17.0,85,0.00,,,0.00,weatherlink.com 1.10,2017-03-27 15:55:00,
2017-03-27 11:10:00,69.0,64.0,30.11,ESE,118,12.0,14.0,85,0.00,,,0.00,weatherlink.com 1.10,2017-03-27 16:10:00,
2017-03-27 11:25:00,69.2,65.0,30.10,SE,131,10.0,15.0,85,0.00,,,0.00,weatherlink.com 1.10,2017-03-27 16:25:00,
2017-03-27 11:40:00,69.5,65.0,30.11,SE,139,12.0,15.0,85,0.00,,,0.00,weatherlink.com 1.10,2017-03-27 16:40:00,
2017-03-27 11:56:00,69.7,65.0,30.10,SE,126,13.0,16.0,85,0.00,,,0.00,weatherlink.com 1.10,2017-03-27 16:56:00,
2017-03-27 12:12:00,69.7,65.0,30.10,SE,136,11.0,14.0,85,0.00,,,0.00,weatherlink.com 1.10,2017-03-27 17:12:00,
2017-03-27 12:26:00,69.7,65.0,30.10,SE,144,10.0,13.0,85,0.00,,,0.00,weatherlink.com 1.10,2017-03-27 17:26:00,
2017-03-27 12:41:00,69.9,65.0,30.10,SE,141,11.0,13.0,85,0.00,,,0.00,weatherlink.com 1.10,2017-03-27 17:41:00,
2017-03-27 12:55:00,69.8,65.0,30.09,SE,134,13.0,13.0,85,0.00,,,0.00,weatherlink.com 1.10,2017-03-27 17:55:00,
2017-03-27 13:10:00,69.7,65.0,30.08,SE,130,12.0,14.0,85,0.00,,,0.00,weatherlink.com 1.10,2017-03-27 18:10:00,
2017-03-27 13:26:00,69.8,65.0,30.07,SE,132,10.0,14.0,85,0.00,,,0.00,weatherlink.com 1.10,2017-03-27 18:26:00,
2017-03-27 13:41:00,70.1,65.0,30.07,SE,127,12.0,14.0,85,0.00,,,0.00,weatherlink.com 1.10,2017-03-27 18:41:00,
2017-03-27 13:56:00,70.3,66.0,30.06,SE,138,7.0,14.0,85,0.00,,,0.00,weatherlink.com 1.10,2017-03-27 18:56:00,
2017-03-27 14:11:00,70.5,66.0,30.05,SE,127,10.0,13.0,85,0.00,,,0.00,weatherlink.com 1.10,2017-03-27 19:11:00,
2017-03-27 14:26:00,70.7,66.0,30.04,SE,141,15.0,15.0,84,0.00,,,0.00,weatherlink.com 1.10,2017-03-27 19:26:00,
2017-03-27 14:41:00,70.7,66.0,30.04,SE,142,12.0,15.0,85,0.00,,,0.00,weatherlink.com 1.10,2017-03-27 19:41:00,
2017-03-27 14:56:00,70.3,66.0,30.04,SSE,151,15.0,16.0,85,0.00,,,0.00,weatherlink.com 1.10,2017-03-27 19:56:00,
2017-03-27 15:11:00,70.2,65.0,30.04,SSE,162,11.0,14.0,84,0.00,,,0.00,weatherlink.com 1.10,2017-03-27 20:11:00,
2017-03-27 15:26:00,70.7,66.0,30.03,SSE,160,9.0,13.0,84,0.00,,,0.00,weatherlink.com 1.10,2017-03-27 20:26:00,
2017-03-27 15:41:00,71.1,66.0,30.03,SSE,150,11.0,12.0,84,0.00,,,0.00,weatherlink.com 1.10,2017-03-27 20:41:00,
2017-03-27 15:56:00,71.0,66.0,30.03,SSE,165,11.0,12.0,84,0.00,,,0.00,weatherlink.com 1.10,2017-03-27 20:56:00,
2017-03-27 16:11:00,71.2,66.0,30.02,SSE,150,11.0,12.0,83,0.00,,,0.00,weatherlink.com 1.10,2017-03-27 21:11:00,
2017-03-27 16:26:00,71.2,66.0,30.02,South,173,10.0,12.0,83,0.00,,,0.00,weatherlink.com 1.10,2017-03-27 21:26:00,
2017-03-27 16:41:00,71.2,66.0,30.01,South,171,11.0,14.0,83,0.00,,,0.00,weatherlink.com 1.10,2017-03-27 21:41:00,
2017-03-27 16:56:00,71.2,66.0,30.01,SSE,165,11.0,12.0,83,0.00,,,0.00,weatherlink.com 1.10,2017-03-27 21:56:00,
2017-03-27 17:11:00,71.2,66.0,30.01,SSE,160,10.0,12.0,83,0.00,,,0.00,weatherlink.com 1.10,2017-03-27 22:11:00,
2017-03-27 17:26:00,71.4,66.0,30.01,South,169,10.0,11.0,83,0.00,,,0.00,weatherlink.com 1.10,2017-03-27 22:26:00,
2017-03-27 17:41:00,71.4,66.0,30.01,SSE,167,10.0,12.0,83,0.00,,,0.00,weatherlink.com 1.10,2017-03-27 22:41:00,
2017-03-27 17:56:00,71.4,66.0,30.00,SSE,157,11.0,11.0,84,0.00,,,0.00,weatherlink.com 1.10,2017-03-27 22:56:00,
2017-03-27 18:11:00,71.3,66.0,30.00,SSE,166,10.0,10.0,84,0.00,,,0.00,weatherlink.com 1.10,2017-03-27 23:11:00,
2017-03-27 18:26:00,70.8,66.0,30.00,SSE,165,10.0,13.0,85,0.00,,,0.00,weatherlink.com 1.10,2017-03-27 23:26:00,
2017-03-27 18:41:00,70.6,66.0,30.01,SSE,164,11.0,12.0,85,0.00,,,0.00,weatherlink.com 1.10,2017-03-27 23:41:00,
2017-03-27 18:56:00,70.6,66.0,30.00,South,175,8.0,11.0,85,0.00,,,0.00,weatherlink.com 1.10,2017-03-27 23:56:00,
2017-03-27 19:11:00,70.5,66.0,30.00,SSE,160,14.0,15.0,86,0.00,,,0.00,weatherlink.com 1.10,2017-03-28 00:11:00,
2017-03-27 19:26:00,70.4,66.0,30.01,South,174,10.0,12.0,86,0.00,,,0.00,weatherlink.com 1.10,2017-03-28 00:26:00,
2017-03-27 19:41:00,70.3,66.0,30.00,SSE,157,12.0,14.0,86,0.00,,,0.00,weatherlink.com 1.10,2017-03-28 00:41:00,
2017-03-27 19:56:00,70.3,66.0,30.00,SSE,164,10.0,11.0,86,0.00,,,0.00,weatherlink.com 1.10,2017-03-28 00:56:00,
2017-03-27 20:11:00,70.3,66.0,30.00,SSE,165,11.0,12.0,87,0.00,,,0.00,weatherlink.com 1.10,2017-03-28 01:11:00,
2017-03-27 20:26:00,70.3,66.0,30.00,South,171,12.0,14.0,87,0.00,,,0.00,weatherlink.com 1.10,2017-03-28 01:26:00,
2017-03-27 20:41:00,70.3,66.0,30.00,SSE,161,12.0,14.0,87,0.00,,,0.00,weatherlink.com 1.10,2017-03-28 01:41:00,
2017-03-27 20:56:00,70.5,67.0,30.02,South,177,7.0,14.0,87,0.00,,,0.00,weatherlink.com 1.10,2017-03-28 01:56:00,
2017-03-27 21:11:00,70.7,67.0,30.02,SSE,168,9.0,12.0,87,0.00,,,0.00,weatherlink.com 1.10,2017-03-28 02:11:00,
2017-03-27 21:26:00,70.7,67.0,30.02,SSE,159,10.0,11.0,87,0.00,,,0.00,weatherlink.com 1.10,2017-03-28 02:26:00,
2017-03-27 21:41:00,70.7,66.0,30.02,South,174,10.0,15.0,86,0.00,,,0.00,weatherlink.com 1.10,2017-03-28 02:41:00,
2017-03-27 21:56:00,71.0,67.0,30.02,South,174,9.0,11.0,87,0.00,,,0.00,weatherlink.com 1.10,2017-03-28 02:56:00,
2017-03-27 22:11:00,71.0,67.0,30.02,South,175,11.0,11.0,86,0.00,,,0.00,weatherlink.com 1.10,2017-03-28 03:11:00,
2017-03-27 22:26:00,71.1,67.0,30.02,South,175,9.0,12.0,86,0.00,,,0.00,weatherlink.com 1.10,2017-03-28 03:26:00,
2017-03-27 22:41:00,71.0,67.0,30.02,SSE,167,10.0,12.0,86,0.00,,,0.00,weatherlink.com 1.10,2017-03-28 03:41:00,